When you browse on this site, cookies collect data to enhance your experience and personalize the content and advertising you see.
Visit our Privacy Policy to learn more. By continuing to use the site, you agree to this use of cookies and data.
  • In Czech Republic
  • List of Countries
  • For 7 days
  • Water Temperature
  • Satellite Maps
  • Weather Map
  • Weather Widgets
  • user-avatar
    Login

    Hourly Weather Farim

    Today, 15 December, Saturday

    Time Temperature Precipitation Wind Pressure Humidity
    00:00 +29°C° 0 mm 1 mps 760 mmHg 20%
    01:00 +29°C° 0 mm 1 mps 760 mmHg 19%
    02:00 +29°C° 0 mm 1 mps 760 mmHg 19%
    03:00 +28°C° 0 mm 1 mps 760 mmHg 18%
    04:00 +28°C° 0 mm 1 mps 760 mmHg 17%
    05:00 +28°C° 0 mm 2 mps 760 mmHg 18%
    06:00 +29°C° 0 mm 2 mps 760 mmHg 17%
    07:00 +30°C° 0 mm 3 mps 761 mmHg 15%
    08:00 +31°C° 0 mm 3 mps 761 mmHg 13%
    09:00 +34°C° 0 mm 4 mps 761 mmHg 12%
    10:00 +37°C° 0 mm 4 mps 761 mmHg 10%
    11:00 +40°C° 0 mm 4 mps 760 mmHg 9%
    12:00 +41°C° 0 mm 4 mps 760 mmHg 9%
    13:00 +42°C° 0 mm 4 mps 759 mmHg 8%
    14:00 +43°C° 0 mm 4 mps 759 mmHg 8%
    15:00 +42°C° 0 mm 3 mps 759 mmHg 9%
    16:00 +40°C° 0 mm 3 mps 759 mmHg 10%
    17:00 +39°C° 0 mm 2 mps 758 mmHg 11%
    18:00 +36°C° 0 mm 2 mps 759 mmHg 13%
    19:00 +34°C° 0 mm 2 mps 760 mmHg 14%
    20:00 +31°C° 0 mm 3 mps 760 mmHg 15%
    21:00 +30°C° 0 mm 3 mps 760 mmHg 15%
    22:00 +30°C° 0 mm 3 mps 761 mmHg 14%
    23:00 +29°C° 0 mm 4 mps 761 mmHg 14%

    Tomorrow, 16 December, Sunday

    Time Temperature Precipitation Wind Pressure Humidity
    00:00 +29°C° 0 mm 3 mps 761 mmHg 14%
    01:00 +28°C° 0 mm 3 mps 761 mmHg 15%
    02:00 +27°C° 0 mm 3 mps 760 mmHg 15%
    03:00 +27°C° 0 mm 3 mps 760 mmHg 15%
    04:00 +27°C° 0 mm 3 mps 760 mmHg 14%
    05:00 +27°C° 0 mm 4 mps 760 mmHg 14%
    06:00 +28°C° 0 mm 4 mps 761 mmHg 14%
    07:00 +29°C° 0 mm 5 mps 761 mmHg 14%
    08:00 +30°C° 0 mm 6 mps 761 mmHg 14%
    09:00 +33°C° 0 mm 5 mps 761 mmHg 12%
    10:00 +36°C° 0 mm 5 mps 761 mmHg 11%
    11:00 +39°C° 0 mm 5 mps 761 mmHg 9%
    12:00 +40°C° 0 mm 5 mps 760 mmHg 9%
    13:00 +41°C° 0 mm 5 mps 759 mmHg 9%
    14:00 +41°C° 0 mm 4 mps 758 mmHg 8%
    15:00 +40°C° 0 mm 4 mps 758 mmHg 9%
    16:00 +38°C° 0 mm 3 mps 758 mmHg 10%
    17:00 +37°C° 0 mm 2 mps 758 mmHg 11%
    18:00 +35°C° 0 mm 2 mps 758 mmHg 12%
    19:00 +32°C° 0 mm 2 mps 759 mmHg 13%
    20:00 +29°C° 0 mm 2 mps 760 mmHg 13%
    21:00 +28°C° 0 mm 2 mps 760 mmHg 13%
    22:00 +28°C° 0 mm 2 mps 760 mmHg 13%
    23:00 +27°C° 0 mm 2 mps 760 mmHg 13%

    Day after tomorrow, 17 December, Monday

    Time Temperature Precipitation Wind Pressure Humidity
    00:00 +26°C° 0 mm 2 mps 760 mmHg 13%
    01:00 +26°C° 0 mm 2 mps 759 mmHg 13%
    02:00 +25°C° 0 mm 2 mps 759 mmHg 12%
    03:00 +25°C° 0 mm 2 mps 759 mmHg 12%
    04:00 +24°C° 0 mm 2 mps 759 mmHg 12%
    05:00 +23°C° 0 mm 2 mps 759 mmHg 12%
    06:00 +25°C° 0 mm 2 mps 759 mmHg 11%
    07:00 +26°C° 0 mm 3 mps 759 mmHg 11%
    08:00 +28°C° 0 mm 3 mps 760 mmHg 10%
    09:00 +31°C° 0 mm 3 mps 759 mmHg 9%
    10:00 +35°C° 0 mm 3 mps 759 mmHg 7%
    11:00 +38°C° 0 mm 3 mps 759 mmHg 6%
    12:00 +40°C° 0 mm 2 mps 758 mmHg 6%
    13:00 +41°C° 0 mm 2 mps 757 mmHg 6%
    14:00 +42°C° 0 mm 1 mps 756 mmHg 6%
    15:00 +41°C° 0 mm 1 mps 756 mmHg 7%
    16:00 +39°C° 0 mm 1 mps 756 mmHg 8%
    17:00 +37°C° 0 mm 1 mps 756 mmHg 10%
    18:00 +34°C° 0 mm 1 mps 757 mmHg 12%
    19:00 +31°C° 0 mm 1 mps 758 mmHg 15%
    20:00 +28°C° 0 mm 1 mps 759 mmHg 17%
    21:00 +27°C° 0 mm 1 mps 759 mmHg 21%
    22:00 +26°C° 0 mm 1 mps 759 mmHg 25%
    23:00 +25°C° 0 mm 1 mps 759 mmHg 29%

    18 December, Tuesday

    Time Temperature Precipitation Wind Pressure Humidity
    00:00 +25°C° 0 mm 1 mps 759 mmHg 31%
    01:00 +24°C° 0 mm 1 mps 759 mmHg 34%
    02:00 +21°C° 0 mm 0 mps 759 mmHg 37%
    03:00 +23°C° 0 mm 1 mps 759 mmHg 39%
    04:00 +22°C° 0 mm 1 mps 759 mmHg 40%
    05:00 +22°C° 0 mm 1 mps 759 mmHg 42%
    06:00 +24°C° 0 mm 1 mps 759 mmHg 39%
    07:00 +25°C° 0 mm 1 mps 760 mmHg 35%
    08:00 +27°C° 0 mm 1 mps 760 mmHg 32%
    09:00 +30°C° 0 mm 2 mps 760 mmHg 25%
    10:00 +34°C° 0 mm 2 mps 760 mmHg 19%
    11:00 +38°C° 0 mm 2 mps 759 mmHg 13%
    12:00 +39°C° 0 mm 2 mps 758 mmHg 11%
    13:00 +41°C° 0 mm 1 mps 758 mmHg 10%
    14:00 +42°C° 0 mm 1 mps 757 mmHg 9%
    15:00 +40°C° 0 mm 1 mps 757 mmHg 11%
    16:00 +39°C° 0 mm 1 mps 757 mmHg 13%
    17:00 +36°C° 0 mm 1 mps 757 mmHg 15%
    18:00 +33°C° 0 mm 1 mps 757 mmHg 22%
    19:00 +31°C° 0 mm 1 mps 758 mmHg 29%
    20:00 +28°C° 0 mm 2 mps 759 mmHg 36%
    21:00 +27°C° 0 mm 1 mps 759 mmHg 46%
    22:00 +26°C° 0 mm 1 mps 759 mmHg 55%
    23:00 +25°C° 0 mm 1 mps 759 mmHg 65%

    19 December, Wednesday

    Time Temperature Precipitation Wind Pressure Humidity
    00:00 +24°C° 0 mm 1 mps 759 mmHg 66%
    01:00 +24°C° 0 mm 1 mps 759 mmHg 68%
    02:00 +23°C° 0 mm 1 mps 758 mmHg 70%
    03:00 +23°C° 0 mm 1 mps 758 mmHg 69%
    04:00 +22°C° 0 mm 1 mps 758 mmHg 68%
    05:00 +22°C° 0 mm 1 mps 759 mmHg 68%
    06:00 +23°C° 0 mm 1 mps 759 mmHg 64%
    07:00 +25°C° 0 mm 1 mps 759 mmHg 60%
    08:00 +27°C° 0 mm 1 mps 760 mmHg 57%
    09:00 +30°C° 0 mm 1 mps 760 mmHg 44%
    10:00 +34°C° 0 mm 2 mps 759 mmHg 32%
    11:00 +37°C° 0 mm 2 mps 759 mmHg 19%
    12:00 +39°C° 0 mm 2 mps 758 mmHg 17%
    13:00 +40°C° 0 mm 2 mps 757 mmHg 14%
    14:00 +41°C° 0 mm 2 mps 756 mmHg 11%
    15:00 +40°C° 0 mm 1 mps 756 mmHg 12%
    16:00 +39°C° 0 mm 1 mps 756 mmHg 14%
    17:00 +36°C° 0 mm 1 mps 756 mmHg 15%
    18:00 +34°C° 0 mm 1 mps 757 mmHg 18%
    19:00 +31°C° 0 mm 1 mps 757 mmHg 21%
    20:00 +28°C° 0 mm 1 mps 758 mmHg 24%
    21:00 +27°C° 0 mm 1 mps 758 mmHg 28%
    22:00 +26°C° 0 mm 1 mps 758 mmHg 32%
    23:00 +25°C° 0 mm 1 mps 758 mmHg 36%

    20 December, Thursday

    Time Temperature Precipitation Wind Pressure Humidity
    00:00 +25°C° 0 mm 1 mps 758 mmHg 35%
    01:00 +24°C° 0 mm 1 mps 758 mmHg 34%
    02:00 +23°C° 0 mm 1 mps 757 mmHg 34%
    03:00 +23°C° 0 mm 1 mps 758 mmHg 31%
    04:00 +22°C° 0 mm 1 mps 758 mmHg 29%
    05:00 +22°C° 0 mm 1 mps 758 mmHg 27%
    06:00 +24°C° 0 mm 1 mps 758 mmHg 25%
    07:00 +25°C° 0 mm 1 mps 759 mmHg 23%
    08:00 +27°C° 0 mm 1 mps 759 mmHg 20%
    09:00 +30°C° 0 mm 2 mps 759 mmHg 17%
    10:00 +35°C° 0 mm 2 mps 759 mmHg 13%
    11:00 +38°C° 0 mm 2 mps 759 mmHg 10%
    12:00 +40°C° 0 mm 2 mps 758 mmHg 9%
    13:00 +41°C° 0 mm 2 mps 757 mmHg 8%
    14:00 +42°C° 0 mm 1 mps 756 mmHg 7%
    15:00 +41°C° 0 mm 1 mps 756 mmHg 9%
    16:00 +39°C° 0 mm 1 mps 756 mmHg 10%
    17:00 +37°C° 0 mm 1 mps 756 mmHg 12%
    18:00 +34°C° 0 mm 1 mps 757 mmHg 16%
    19:00 +31°C° 0 mm 1 mps 757 mmHg 21%
    20:00 +28°C° 0 mm 1 mps 758 mmHg 25%
    21:00 +27°C° 0 mm 1 mps 758 mmHg 29%
    22:00 +26°C° 0 mm 1 mps 758 mmHg 32%
    23:00 +25°C° 0 mm 1 mps 758 mmHg 36%
    Show more